North Vernon, Indiana, United States (47265)
Lat: 39.01N, Lon: 85.62W
Wx Zone: INZ072
Local Info
Past Weather Observations for Sunday, August 24, 2014

NOTE: This archive is for the closest National Weather Service station to North Vernon. Information may differ from the station used for current weather conditions.

Click here for Long-term Archive

Time Weather Temperature Dewpoint Humidity Pressure Winds Precip Visibility
23:53
Clear
Fog And Mist
75°F / 24°C 72°F / 22°C 89% 30.04 in
(1017 mb)
E 5.8 mph
(E 9 kph)
- 6SM
22:53
Clear
Fog And Mist
75°F / 24°C 72°F / 22°C 89% 30.04 in
(1017 mb)
E 5.8 mph
(E 9 kph)
- 5SM
21:53
Clear
Fog And Mist
75°F / 24°C 73°F / 23°C 94% 30.04 in
(1017 mb)
E 4.6 mph
(E 7 kph)
- 4SM
20:53
Clear
Fog And Mist
77°F / 25°C 73°F / 23°C 89% 30.04 in
(1017 mb)
E 3.5 mph
(E 6 kph)
- 4SM
19:53
Clear
Fog And Mist
79°F / 26°C 75°F / 24°C 89% 30.01 in
(1016 mb)
E 4.6 mph
(E 7 kph)
- 4SM
18:53
Clear
Hazy
82°F / 28°C 75°F / 24°C 79% 30.01 in
(1016 mb)
E 4.6 mph
(E 7 kph)
- 5SM
17:53
Partly Cloudy
84°F / 29°C 75°F / 24°C 74% 30.01 in
(1016 mb)
Calm - 7SM
16:53
Mostly Cloudy
86°F / 30°C 75°F / 24°C 70% 29.98 in
(1015 mb)
E 3.5 mph
(E 6 kph)
- 9SM
15:53
Partly Cloudy
88°F / 31°C 73°F / 23°C 62% 30.01 in
(1016 mb)
Calm - 10SM
14:53
Partly Cloudy
88°F / 31°C 73°F / 23°C 62% 30.01 in
(1016 mb)
SE 5.8 mph
(SE 9 kph)
- 10SM
13:53
Partly Cloudy
86°F / 30°C 73°F / 23°C 66% 30.04 in
(1017 mb)
Variable 3.5 mph
(Variable 6 kph)
- 10SM
13:06
Mostly Cloudy
84°F / 29°C 73°F / 23°C 70% 30.04 in
(1017 mb)
Calm - 10SM
12:53
Mostly Cloudy
84°F / 29°C 73°F / 23°C 70% 30.04 in
(1017 mb)
SSE 3.5 mph
(SSE 6 kph)
- 10SM
11:53
Partly Cloudy
84°F / 29°C 73°F / 23°C 70% 30.04 in
(1017 mb)
SSE 4.6 mph
(SSE 7 kph)
- 10SM
11:31
Partly Cloudy
84°F / 29°C 75°F / 24°C 74% 30.04 in
(1017 mb)
SE 6.9 mph
(SE 11 kph)
- 9SM
11:24
Mostly Cloudy
82°F / 28°C 73°F / 23°C 74% 30.04 in
(1017 mb)
SE 5.8 mph
(SE 9 kph)
- 8SM
10:53
Mostly Cloudy
81°F / 27°C 75°F / 24°C 84% 30.06 in
(1018 mb)
SSE 5.8 mph
(SSE 9 kph)
- 7SM
10:46
Mostly Cloudy
81°F / 27°C 73°F / 23°C 79% 30.06 in
(1018 mb)
Variable 4.6 mph
(Variable 7 kph)
- 7SM
09:53
Overcast
Hazy
79°F / 26°C 73°F / 23°C 84% 30.04 in
(1017 mb)
SE 4.6 mph
(SE 7 kph)
- 6SM
09:29
Overcast
Hazy
77°F / 25°C 72°F / 22°C 83% 30.04 in
(1017 mb)
Variable 5.8 mph
(Variable 9 kph)
- 5SM
08:53
Overcast
Fog And Mist
75°F / 24°C 72°F / 22°C 89% 30.04 in
(1017 mb)
ESE 4.6 mph
(ESE 7 kph)
- 3SM
07:53
Overcast
Fog And Mist
75°F / 24°C 72°F / 22°C 89% 30.04 in
(1017 mb)
SSE 4.6 mph
(SSE 7 kph)
- 4SM
07:40
Overcast
Fog And Mist
75°F / 24°C 72°F / 22°C 89% 30.04 in
(1017 mb)
Calm - 3SM
07:17
Overcast
Fog And Mist
73°F / 23°C 72°F / 22°C 94% 30.04 in
(1017 mb)
Calm - 2SM
07:01
Overcast
Fog And Mist
73°F / 23°C 72°F / 22°C 94% 30.04 in
(1017 mb)
Calm - 2 1/2SM
06:53
Overcast
Fog And Mist
73°F / 23°C 72°F / 22°C 94% 30.04 in
(1017 mb)
Calm - 1 3/4SM
06:37
Overcast
Fog And Mist
73°F / 23°C 70°F / 21°C 89% 30.01 in
(1016 mb)
Calm - 2SM
06:25
Overcast
Fog
72°F / 22°C 70°F / 21°C 94% 30.01 in
(1016 mb)
Calm - 1/2SM
05:58
Overcast
Fog And Mist
72°F / 22°C 70°F / 21°C 94% 30.01 in
(1016 mb)
Calm - 1 3/4SM
05:53
Overcast
Fog And Mist
72°F / 22°C 70°F / 21°C 94% 30.01 in
(1016 mb)
Calm - 3SM
05:43
Overcast
Fog And Mist
73°F / 23°C 70°F / 21°C 89% 30.01 in
(1016 mb)
Calm - 4SM
04:53
Overcast
Fog And Mist
73°F / 23°C 72°F / 22°C 94% 29.98 in
(1015 mb)
ENE 3.5 mph
(ENE 6 kph)
- 4SM
04:23
Overcast
Fog And Mist
72°F / 22°C 70°F / 21°C 94% 30.01 in
(1016 mb)
NNW 3.5 mph
(NNW 6 kph)
- 3SM
04:02
Overcast
Fog And Mist
72°F / 22°C 70°F / 21°C 94% 29.98 in
(1015 mb)
Calm - 1SM
03:53
Overcast
Fog And Mist
72°F / 22°C 70°F / 21°C 94% 29.98 in
(1015 mb)
N 3.5 mph
(N 6 kph)
- 3/4SM
03:38
Obscured
Fog
72°F / 22°C 70°F / 21°C 94% 29.98 in
(1015 mb)
Calm - 1/2SM
02:53
Obscured
Fog
72°F / 22°C 70°F / 21°C 94% 29.98 in
(1015 mb)
Calm - 1/4SM
02:43
Obscured
Fog
72°F / 22°C 70°F / 21°C 94% 29.98 in
(1015 mb)
Calm - 1/4SM
02:34
Obscured
Fog
72°F / 22°C 70°F / 21°C 94% 29.98 in
(1015 mb)
Calm - 1/2SM
02:30
Mostly Cloudy
Fog And Mist
73°F / 23°C 70°F / 21°C 89% 29.98 in
(1015 mb)
Calm - 1 1/2SM
02:21
Mostly Cloudy
Fog And Mist
73°F / 23°C 70°F / 21°C 89% 29.98 in
(1015 mb)
W 3.5 mph
(W 6 kph)
- 2 1/2SM
02:04
Mostly Cloudy
Fog And Mist
73°F / 23°C 72°F / 22°C 94% 29.98 in
(1015 mb)
Calm - 3SM
01:53
Obscured
Fog And Mist
72°F / 22°C 70°F / 21°C 94% 29.98 in
(1015 mb)
W 4.6 mph
(W 7 kph)
- 1SM
01:45
Obscured
Fog And Mist
72°F / 22°C 70°F / 21°C 94% 29.98 in
(1015 mb)
NW 3.5 mph
(NW 6 kph)
- 1SM
01:31
Clear
Fog And Mist
73°F / 23°C 70°F / 21°C 89% 29.98 in
(1015 mb)
Calm - 1SM
01:21
Obscured
Fog And Mist
72°F / 22°C 70°F / 21°C 94% 29.98 in
(1015 mb)
Calm - 3/4SM
01:18
Partly Cloudy
Fog And Mist
72°F / 22°C 70°F / 21°C 94% 29.98 in
(1015 mb)
Calm - 1 1/2SM
01:04
Clear
Fog And Mist
73°F / 23°C 70°F / 21°C 89% 29.98 in
(1015 mb)
ESE 3.5 mph
(ESE 6 kph)
- 3SM
00:53
Clear
Fog And Mist
73°F / 23°C 70°F / 21°C 89% 29.98 in
(1015 mb)
Calm - 1 1/4SM
00:49
Clear
Fog And Mist
73°F / 23°C 70°F / 21°C 89% 29.98 in
(1015 mb)
Calm - 1 3/4SM
Time Weather Temperature Dewpoint Humidity Pressure Winds Precip Visibility


Weather for websites

WeatherForYou.com, LLC is not responsible for any damages or problems caused by this service. Current weather conditions are obtained from the closest station including government and personal stations which may have varying degrees of accuracy. Weather forecasts are derived from the NOAA NDFD. Like all things, this site belongs to Jesus Christ... He just trusts me to maintain it. If you have any questions or comments email webmaster@weatherforyou.com

Copyright © 2014, WeatherForYou.com LLC. All rights reserved.